Wind_Speed
13 11 12 12 12 10 8 6 4 2 2 3 4 5 5 6 6 5 5 5 5 6 6 6 5 5 6 6 7 8 8 8 8 8 9 10 10 10 10 10 9 9 9 9 9 9 9 9 9 10 10 11 11 12 13 13 13 15 16 17 19 20 21 21 21 23 24 24 23 23 23 23 24 24 26 27 29 29 30 31 33 33 32 32 31 30 30 29
10 7 8 11 11 8 5 4 2 1 2 3 4 5 6 6 6 5 5 6 6 6 6 6 6 6 6 7 8 9 8 8 9 10 11 11 11 11 11 11 10 11 12 12 12 12 12 11 11 11 11 11 11 12 13 13 14 15 17 18 20 20 21 21 22 24 24 25 24 24 25 25 26 27 28 30 29 29 30 30 30 30 30 30 30 29 29 28
9 7 8 8 7 5 3 2 1 2 3 5 5 6 7 6 6 6 6 6 6 6 6 7 7 7 7 7 8 8 9 10 11 12 12 11 11 12 12 12 13 13 14 13 13 13 13 13 12 13 12 11 12 12 13 14 15 16 18 20 21 21 22 22 23 24 25 25 26 26 27 27 28 28 29 29 28 28 28 26 26 27 27 28 29 28 28 28
10 7 5 4 4 3 3 2 2 3 5 6 6 7 7 7 7 8 8 7 7 7 8 8 8 8 8 7 7 7 9 11 11 11 11 11 12 12 12 13 13 13 14 14 14 14 14 14 14 14 14 14 14 14 14 15 16 17 18 20 21 21 22 22 23 24 25 25 26 27 28 28 28 28 29 28 29 30 28 26 27 27 26 27 28 28 28 28
10 7 5 4 3 3 5 3 3 5 6 6 7 7 7 8 8 9 9 9 9 8 8 8 7 7 9 9 8 8 8 9 11 11 11 11 11 11 11 11 11 12 12 13 13 14 14 15 15 15 15 15 16 16 16 16 17 18 18 19 20 21 22 22 23 24 24 25 25 25 27 27 28 30 30 30 31 31 29 29 30 28 27 28 27 28 28 28
11 9 7 5 2 5 5 4 5 6 6 7 7 7 7 8 9 9 9 9 9 8 8 7 8 8 9 10 9 10 10 9 11 11 11 11 10 11 10 10 11 11 12 12 13 14 14 14 14 15 15 15 16 16 17 17 17 18 19 19 20 21 22 22 23 23 24 25 25 26 28 29 31 32 33 32 32 31 31 31 29 28 28 28 28 28 28 28
10 8 6 4 5 5 4 5 6 6 6 7 7 7 7 8 9 9 9 8 8 8 8 8 9 9 9 9 9 12 12 11 11 10 10 10 9 10 9 9 11 12 12 13 14 14 14 14 14 15 15 15 16 16 16 17 17 19 20 20 21 22 23 22 23 24 25 26 27 28 29 30 32 34 34 33 31 31 32 30 28 28 29 29 29 28 27 27
8 6 4 5 6 5 4 5 6 6 6 7 7 7 7 8 8 9 9 8 8 8 8 9 10 9 8 8 10 12 12 12 11 10 10 10 10 10 10 10 12 13 13 14 14 15 15 15 15 16 16 16 16 16 16 18 19 20 21 22 23 23 23 23 24 24 26 27 28 29 29 31 32 34 36 33 30 29 29 28 28 29 30 30 29 28 27 28
7 5 5 6 5 4 5 6 6 6 7 7 7 7 8 8 8 8 8 8 8 8 9 10 10 9 8 8 10 11 11 11 11 9 9 10 11 11 11 12 13 13 14 14 15 15 15 16 16 16 17 17 16 16 17 19 20 20 21 23 23 24 24 24 25 26 27 28 29 30 30 32 33 35 37 33 29 28 28 29 30 30 31 32 31 30 30 31
6 5 6 6 5 5 6 6 6 7 7 7 7 8 8 8 8 8 8 8 8 9 9 10 10 9 7 8 9 10 11 11 10 9 10 10 10 11 12 13 13 14 14 15 15 15 16 16 15 16 16 16 16 17 18 18 19 21 22 23 24 25 25 25 26 27 27 27 28 30 32 34 34 36 36 32 29 30 30 30 31 32 34 34 32 31 32 33
6 7 7 6 6 7 7 7 7 7 7 7 7 8 8 7 7 8 8 8 8 9 10 9 9 7 7 9 10 10 10 10 9 10 10 10 10 11 11 12 13 14 15 16 16 16 16 16 16 16 16 16 17 18 18 19 21 22 23 24 24 25 26 26 25 25 26 27 29 32 36 38 35 35 35 32 32 32 31 32 33 36 37 36 33 32 33 34
7 7 7 6 7 7 7 7 7 7 7 6 6 7 7 6 6 7 8 9 8 9 9 8 7 6 9 11 9 9 10 9 9 10 10 9 10 11 12 12 12 13 14 15 15 16 16 17 17 17 17 17 18 18 18 20 22 23 24 26 25 25 26 25 23 25 27 29 31 32 38 42 37 35 34 34 35 34 35 37 38 39 39 37 34 32 33 35
7 8 7 7 7 7 7 7 7 7 7 7 6 7 7 7 7 8 8 8 8 8 8 8 7 7 9 9 8 9 9 8 9 9 9 10 11 11 12 12 13 13 14 15 16 16 17 17 17 17 17 17 18 19 20 22 23 23 25 26 27 29 28 26 27 28 28 29 30 31 39 47 41 37 36 36 37 38 40 42 42 42 40 38 35 33 33 35
8 7 7 6 7 7 7 7 7 7 8 7 7 8 9 9 9 9 9 8 8 8 8 8 9 9 9 7 7 9 8 8 9 10 12 13 13 13 12 13 14 15 16 17 17 17 18 17 17 17 17 18 19 21 22 23 23 23 25 26 28 32 32 30 30 30 29 30 32 31 38 48 44 38 37 37 39 41 42 42 42 42 40 38 36 33 33 34
8 7 6 6 6 7 7 7 7 8 9 8 9 9 10 9 9 9 8 8 9 9 8 9 9 9 8 7 8 9 9 9 11 12 13 13 14 15 15 15 16 16 18 18 18 18 18 18 18 17 17 19 21 22 23 22 22 23 25 27 28 32 35 34 31 30 31 31 33 32 37 48 46 40 39 40 43 42 41 40 39 39 38 36 34 32 32 34
6 6 5 5 6 7 7 8 8 9 9 10 10 10 10 10 10 9 9 8 9 8 8 8 8 8 8 8 9 11 10 11 12 12 12 13 14 15 16 16 17 17 18 18 19 19 19 18 17 17 18 21 21 23 24 21 22 23 25 28 31 32 36 38 35 32 33 34 34 32 38 50 48 44 44 44 43 40 37 36 36 36 35 33 32 31 32 34
5 4 5 6 7 7 7 7 8 8 8 9 9 9 10 10 10 10 9 9 8 8 8 7 6 6 9 10 11 10 9 10 12 11 12 13 14 16 17 17 18 18 18 18 18 18 18 16 16 17 18 21 20 21 23 22 25 27 27 29 31 33 36 40 39 37 37 38 37 35 42 50 50 47 45 42 39 35 32 32 31 30 31 30 28 29 31 33
4 5 5 6 6 6 7 7 8 9 9 9 9 10 11 11 11 11 10 9 8 7 7 8 8 7 9 10 11 11 11 11 12 13 13 15 16 16 16 16 16 17 17 18 17 16 15 14 15 17 18 19 19 21 21 21 24 27 28 30 32 35 37 37 39 40 39 41 41 41 45 51 51 47 42 36 31 26 24 23 24 28 31 30 28 28 29 32
5 6 6 6 6 7 8 9 10 10 10 10 11 11 11 12 12 10 10 9 9 8 9 10 11 10 10 10 12 14 13 12 14 16 16 17 16 16 16 15 16 16 16 16 15 15 15 15 17 20 20 21 21 22 21 20 22 24 26 30 32 36 38 36 39 40 40 45 47 45 49 53 51 46 39 29 20 16 17 20 23 28 31 31 30 29 28 30
6 6 7 7 7 9 10 11 11 10 10 10 10 10 11 12 11 10 9 6 8 12 13 12 13 13 12 11 13 15 15 15 17 18 16 15 15 15 15 15 15 15 17 17 17 18 16 16 21 23 21 21 20 21 21 22 23 24 26 30 32 35 39 40 40 40 42 48 51 48 51 52 47 42 31 19 14 16 19 22 27 30 29 30 29 28 27 29
7 7 7 8 9 10 11 10 9 9 9 9 10 11 12 12 10 10 8 7 11 15 15 14 14 14 13 12 12 14 17 17 17 16 15 14 14 15 15 15 17 18 21 22 19 19 18 19 23 21 19 19 20 21 23 23 23 26 28 31 33 35 41 44 40 41 46 49 51 50 50 50 44 32 19 15 17 21 24 26 28 28 26 26 28 27 26 27
8 8 8 9 10 10 9 9 9 9 9 9 11 12 12 11 12 12 11 11 14 15 16 16 15 14 15 13 11 12 15 13 10 12 12 13 14 16 17 18 21 23 24 22 19 19 20 22 22 19 19 20 21 22 23 24 26 28 29 31 33 36 42 46 44 45 46 47 51 48 46 49 41 22 16 22 25 23 26 28 25 24 24 26 28 27 25 27
9 9 10 11 11 10 9 9 9 9 10 9 10 10 8 8 9 12 13 14 15 14 15 15 14 14 14 13 11 10 12 12 10 13 14 16 18 19 19 20 24 25 24 23 21 20 23 22 20 19 20 22 23 23 24 27 28 28 30 29 32 36 38 43 48 48 45 46 45 40 43 45 30 21 26 27 24 26 27 25 22 23 26 27 27 25 24 28
10 10 11 11 11 10 9 8 7 7 7 6 5 4 2 3 4 7 10 13 15 15 14 14 14 15 13 13 11 8 13 16 16 18 19 20 21 21 22 23 25 25 24 24 21 21 24 21 18 20 22 23 23 23 27 30 31 30 28 27 32 37 35 39 46 47 49 45 35 35 42 36 22 24 31 25 24 30 27 25 27 29 29 27 25 23 24 30
11 11 11 11 10 9 7 5 4 4 3 3 2 2 2 3 2 3 4 8 14 15 13 13 14 15 14 13 12 10 13 18 19 21 22 22 23 24 24 24 26 25 26 25 20 21 23 18 18 22 23 23 22 27 30 30 34 33 27 28 34 36 37 40 41 43 46 37 31 34 26 19 25 28 25 26 32 33 29 31 34 33 32 28 23 22 25 31
12 11 10 9 8 6 5 4 3 3 3 2 2 2 3 3 2 2 1 3 10 14 14 13 13 14 13 13 15 12 12 18 21 21 21 21 23 25 24 24 25 24 27 26 20 20 21 17 19 24 24 21 23 30 30 30 34 32 29 33 34 35 39 40 38 37 34 29 31 29 9 12 31 31 25 33 37 32 32 36 36 35 32 26 20 21 26 29
11 9 9 8 6 5 4 4 3 3 3 2 2 3 3 3 3 2 0 1 7 13 14 13 12 14 14 14 17 15 13 17 19 18 20 21 23 25 23 25 26 24 27 27 23 22 19 17 19 24 23 20 27 32 30 32 32 29 33 34 34 38 38 36 37 31 26 29 29 18 9 14 21 23 30 36 33 30 34 36 36 35 28 21 18 20 24 25
10 9 8 7 5 4 4 3 3 2 2 1 2 3 4 3 2 2 2 2 6 10 12 13 12 13 16 16 16 17 16 17 17 18 21 21 22 23 22 25 27 25 26 28 27 24 20 17 20 24 22 22 30 32 31 32 29 31 35 32 35 39 35 34 32 24 24 27 18 14 20 15 15 26 34 31 28 30 34 35 34 30 22 17 17 20 20 19
10 9 7 5 4 5 4 3 3 2 2 1 1 4 5 2 1 2 3 3 4 7 9 12 11 12 15 15 15 16 17 18 18 19 21 19 20 22 21 25 28 25 25 28 26 22 18 16 20 24 21 24 32 32 32 30 29 34 32 33 39 38 37 34 22 25 31 19 7 15 23 13 17 32 31 24 27 31 33 33 29 22 18 17 17 16 18 26
10 7 4 3 4 5 4 3 3 2 1 1 1 3 6 3 2 2 3 1 3 6 8 9 10 11 12 13 13 14 16 18 18 18 18 17 19 21 21 22 24 21 21 25 23 19 16 13 20 24 20 26 35 34 33 30 31 34 31 39 45 39 41 32 17 27 27 8 4 15 20 15 13 22 24 24 28 31 33 30 24 20 17 15 15 22 34 47
8 4 1 4 5 5 4 3 2 2 1 2 1 2 4 3 2 2 2 1 2 4 6 7 9 10 11 13 13 14 16 18 19 18 18 17 17 19 19 21 24 22 23 29 27 22 16 12 21 24 20 28 37 36 34 31 31 30 31 44 45 39 42 27 17 23 11 4 11 17 27 27 13 15 23 28 32 34 31 26 22 21 16 17 28 42 54 61
5 2 2 5 5 4 3 3 3 3 3 3 2 2 2 2 3 4 4 2 1 2 4 6 8 10 12 15 15 14 16 18 20 20 20 21 20 23 25 29 32 29 29 34 32 27 20 15 22 25 23 32 40 39 35 32 31 29 35 44 33 23 25 14 11 13 3 11 21 26 33 24 12 17 26 31 35 31 26 23 20 18 21 32 46 56 62 64
3 2 4 5 4 2 2 3 4 4 3 2 2 2 2 2 3 5 5 2 1 2 4 5 7 12 14 14 15 15 15 18 20 20 21 22 23 27 29 30 32 28 27 31 31 31 25 18 25 27 24 33 40 37 34 33 30 28 34 35 21 9 8 5 7 8 8 21 34 35 24 11 11 24 30 32 30 25 24 22 20 25 36 47 55 60 63 65
2 3 3 3 2 2 3 4 4 4 3 2 2 3 3 4 4 6 5 4 3 3 4 7 8 11 14 14 15 16 15 18 20 19 21 22 23 26 28 28 29 27 28 29 28 29 22 15 23 26 24 33 37 28 27 27 22 24 30 27 23 17 6 4 7 7 10 23 35 29 10 5 19 30 31 30 25 23 25 25 30 43 52 56 60 63 64 63
1 2 2 2 1 2 3 3 3 3 3 2 3 4 4 5 6 6 5 5 4 2 2 7 9 10 12 14 15 16 15 17 19 18 20 22 23 26 28 29 29 29 30 27 25 26 21 15 21 23 25 34 32 24 25 24 18 23 29 28 28 23 12 13 16 17 20 20 21 15 7 16 29 31 29 25 22 24 28 37 50 57 59 61 62 63 63 61
1 1 1 1 2 2 3 3 2 2 3 3 3 4 5 6 7 6 5 6 5 4 3 5 8 9 10 12 14 15 14 16 18 17 20 22 22 25 27 28 28 29 29 27 24 24 23 22 20 20 28 34 28 23 24 23 21 26 30 31 27 17 12 15 20 25 24 14 10 8 14 29 30 23 22 21 22 30 40 52 59 58 60 62 62 63 61 58
0 1 2 2 2 2 3 3 3 2 3 3 3 5 6 7 7 6 6 6 6 7 6 5 7 9 10 12 14 14 13 15 17 17 20 21 20 22 26 27 27 27 27 26 24 23 25 27 22 21 30 34 25 21 22 21 24 28 29 29 25 15 11 14 14 16 14 8 11 15 23 30 21 16 24 27 29 41 53 58 56 56 61 63 63 62 57 56
1 1 2 2 2 2 3 4 5 4 3 3 4 6 7 7 7 6 6 6 6 7 8 8 9 10 12 13 14 15 13 14 17 18 19 20 17 19 24 26 25 25 25 26 25 26 26 25 22 25 33 32 22 18 20 19 22 27 26 25 24 13 10 16 12 7 7 6 11 22 28 22 16 22 30 32 39 51 56 54 55 60 64 64 64 59 56 57
2 2 3 3 2 3 3 4 4 3 4 4 4 5 6 7 7 6 6 5 6 6 8 9 10 11 12 13 14 15 14 14 17 18 17 18 17 18 23 25 24 24 25 26 26 28 27 19 17 28 36 29 20 19 20 18 21 29 29 26 25 13 10 18 12 6 8 6 7 20 21 13 20 31 31 36 49 54 51 53 59 64 66 65 62 58 58 59
4 4 4 4 4 4 4 3 3 2 3 3 4 5 6 7 7 7 6 6 6 6 8 9 10 11 12 13 13 16 14 12 16 18 17 19 17 17 22 24 24 24 25 27 28 29 29 18 18 33 37 26 20 21 18 14 20 30 31 28 27 24 24 23 12 7 7 5 6 11 11 18 32 31 30 45 55 51 51 58 64 67 68 64 59 59 61 58
5 5 5 5 5 6 5 4 3 2 3 4 5 6 7 7 6 7 6 6 6 6 8 9 10 11 12 12 13 15 14 11 15 17 16 18 17 16 21 23 24 24 25 29 30 30 28 18 22 38 37 24 19 16 10 11 20 30 31 28 27 30 32 21 9 11 13 11 12 8 9 24 31 25 36 53 54 52 57 63 66 68 65 60 58 60 59 55
6 6 6 5 5 5 5 4 3 3 3 4 5 6 6 7 6 6 6 6 6 6 8 9 10 11 12 12 12 14 14 11 14 16 16 17 17 17 20 23 23 22 25 28 30 33 29 20 27 38 32 21 17 13 10 16 27 33 32 31 30 31 30 16 7 17 24 22 22 16 14 21 25 29 47 55 52 56 62 64 67 66 60 57 60 61 58 56
6 6 6 5 5 4 4 4 3 2 3 4 5 5 6 6 6 6 5 5 5 6 8 9 10 11 11 12 12 14 14 12 12 16 16 16 17 18 20 23 22 21 23 26 29 33 27 22 32 39 31 25 21 19 20 24 31 35 33 33 32 30 29 19 12 18 21 19 20 15 12 22 34 43 51 52 54 59 63 66 66 62 59 60 62 61 57 58
6 5 5 5 5 3 3 4 4 2 2 3 4 5 5 6 6 6 6 5 5 6 7 9 10 10 11 12 12 14 14 12 12 14 16 16 16 18 21 22 21 20 22 25 28 29 24 23 31 31 24 23 23 23 27 32 35 34 33 33 32 31 28 22 18 17 12 13 20 13 13 33 50 51 51 54 58 62 66 67 64 59 59 62 63 59 56 59
5 4 3 3 3 2 2 3 3 3 2 2 4 4 5 5 5 5 5 5 5 6 7 9 9 10 11 12 12 13 13 12 11 13 15 16 17 18 21 22 20 19 22 24 27 28 25 25 26 20 10 10 14 18 25 33 35 33 32 31 31 31 27 22 22 19 13 18 22 15 23 47 59 55 56 58 60 66 70 67 62 59 60 63 63 57 56 61
5 4 3 2 1 2 2 1 3 4 3 2 3 3 4 4 4 4 4 5 5 6 7 8 9 9 10 11 11 12 13 12 12 13 15 16 17 19 20 21 19 19 22 25 26 27 27 26 26 23 18 18 21 23 24 27 30 32 31 30 30 28 24 23 24 23 22 27 27 25 33 51 60 58 57 60 64 69 70 65 61 60 62 65 63 60 61 65
3 2 2 1 1 1 1 1 2 4 3 3 3 3 3 3 3 3 3 4 5 6 6 8 9 9 9 11 11 12 13 12 13 15 15 16 17 18 20 21 18 19 23 25 26 27 28 27 28 30 31 30 27 25 23 23 27 30 30 29 28 24 22 24 26 26 29 27 31 43 47 49 56 57 55 61 68 69 66 63 60 62 64 65 64 64 66 67
3 2 2 1 2 1 0 0 1 3 3 3 3 3 3 2 2 3 3 4 5 6 6 7 9 9 9 11 11 13 14 13 13 15 15 16 17 18 21 20 17 20 24 24 26 28 27 28 30 33 36 31 23 23 26 27 28 29 26 24 23 21 22 27 27 31 36 30 34 48 50 47 53 54 56 64 67 65 64 61 60 63 64 64 64 66 68 68
5 4 3 2 1 1 1 1 1 3 3 4 4 3 3 2 2 2 3 4 5 6 6 7 9 9 9 11 12 13 14 14 14 14 16 17 16 18 20 17 17 21 23 24 27 28 27 30 31 35 37 30 23 27 32 31 30 26 21 18 19 21 24 28 30 37 42 38 39 44 45 47 50 51 58 65 63 63 64 62 61 63 62 62 65 66 68 68
5 5 4 3 2 2 2 2 2 3 4 4 4 4 3 2 2 2 3 4 5 6 6 7 8 9 9 10 12 13 14 14 14 14 16 16 16 18 18 17 18 21 23 25 27 27 29 31 31 35 38 31 28 33 36 31 27 19 14 15 19 25 28 29 36 44 46 45 44 42 43 49 51 53 60 64 62 62 63 62 62 60 59 62 65 66 68 68
6 5 5 4 3 2 3 3 3 3 4 4 5 5 4 3 3 3 3 5 6 6 6 7 8 9 9 10 11 12 13 14 14 14 15 15 16 17 18 18 19 21 23 24 26 28 30 31 33 35 36 33 33 37 37 27 16 10 12 19 24 28 30 33 42 48 46 46 47 44 45 49 53 59 63 63 62 62 61 61 61 60 61 63 65 67 68 67
6 6 5 4 4 3 3 4 4 4 4 5 5 5 4 4 3 3 4 5 6 6 7 7 8 9 9 9 11 12 13 14 14 14 15 16 16 17 18 18 18 21 24 24 26 28 29 32 34 32 32 34 36 39 34 17 6 8 18 25 27 28 31 41 50 50 45 43 43 43 46 50 56 64 65 63 62 60 60 61 59 60 63 64 65 67 67 66
Wind_Direction
132 132 145 166 191 218 244 265 286 316 341 3 19 22 29 31 31 31 28 27 30 37 45 53 58 61 72 75 69 63 55 45 36 33 36 34 34 36 36 35 34 31 23 15 8 3 3 1 358 355 352 347 340 336 330 324 321 315 309 303 300 300 300 302 300 297 297 297 296 295 292 290 289 286 285 283 282 283 284 284 285 286 285 285 284 284 282 281
155 158 166 180 196 217 236 250 271 12 9 22 25 24 28 29 32 35 36 40 41 49 57 61 63 64 73 78 72 64 53 45 41 40 41 40 41 41 40 35 30 26 20 16 9 3 2 0 357 355 352 345 340 334 325 321 318 311 306 303 303 303 302 302 300 299 298 297 296 294 293 292 291 289 287 285 285 285 285 287 287 286 285 284 283 281 281 280
171 183 190 191 194 206 214 189 113 62 38 30 26 28 32 36 42 47 53 55 56 63 66 70 72 69 70 74 70 62 55 51 49 47 46 44 44 43 40 34 28 24 19 15 9 3 0 357 355 354 350 344 339 331 323 321 317 311 306 304 307 308 306 305 304 302 300 298 296 294 293 293 292 290 288 288 288 288 291 293 289 288 287 285 283 282 281 281
151 154 153 184 199 178 143 111 83 52 39 32 31 38 45 52 58 64 67 67 67 66 67 72 74 71 69 65 64 66 64 59 52 50 47 45 44 41 39 36 29 24 19 14 8 2 359 357 354 352 348 343 338 332 327 324 317 314 311 311 313 312 310 310 308 305 303 300 298 297 295 295 295 292 292 293 292 296 300 295 291 292 291 287 286 285 284 283
168 167 154 195 215 127 115 102 76 49 40 41 46 54 62 70 76 78 76 72 70 68 69 70 67 66 65 63 66 69 71 62 51 49 47 45 42 39 35 31 26 21 17 12 7 2 358 357 353 349 346 341 338 334 329 325 319 315 315 316 314 313 313 313 311 309 307 305 303 302 300 300 299 297 297 296 298 306 304 295 293 295 292 290 289 287 285 286
183 190 192 200 158 114 108 86 65 48 48 57 65 71 77 84 86 85 82 78 77 78 75 70 65 65 67 71 70 65 67 63 52 49 46 41 38 34 26 21 18 14 10 8 3 358 354 352 348 344 341 337 334 333 327 323 319 315 317 317 313 313 314 315 314 313 311 309 307 305 304 305 303 301 299 298 304 308 301 296 297 297 296 295 291 287 287 289
179 186 191 161 123 115 98 72 57 51 62 74 82 84 87 89 88 87 85 83 83 81 79 77 73 71 74 74 67 63 62 60 54 47 40 34 32 27 17 12 13 9 5 1 357 353 349 346 342 338 336 333 331 330 326 323 319 315 317 317 314 314 315 315 314 314 312 309 308 306 306 306 303 301 298 301 310 308 301 301 300 299 301 300 295 290 288 289
172 176 159 123 119 115 89 67 58 66 81 89 92 92 90 86 85 86 84 82 79 77 83 84 82 81 78 68 62 62 57 54 49 40 34 27 23 16 7 8 8 4 359 356 351 348 346 343 340 337 335 333 331 330 327 323 319 318 319 316 315 314 313 313 314 313 310 309 308 306 306 304 302 300 298 306 316 309 303 301 299 301 305 304 299 293 290 290
162 156 126 115 117 105 79 67 70 86 95 97 95 89 85 83 83 83 80 78 73 77 87 89 87 79 71 64 58 57 53 49 43 36 31 22 16 7 3 6 3 358 354 351 348 346 346 344 342 338 335 334 332 330 326 322 319 319 318 315 316 315 314 315 315 313 311 311 309 307 307 304 302 300 302 315 320 310 305 301 301 305 307 306 301 294 290 288
146 129 113 109 104 86 70 73 85 97 100 96 90 85 83 82 81 80 78 78 78 85 89 87 79 66 62 61 52 50 49 43 37 30 22 16 10 3 3 2 356 354 350 349 349 347 346 346 343 339 337 335 333 329 326 324 322 321 319 318 320 317 316 317 316 314 313 311 309 309 307 304 302 301 309 321 318 310 308 306 307 308 307 306 301 293 287 285
123 110 103 98 87 75 72 83 96 102 98 91 87 84 81 79 81 85 85 85 87 89 86 81 74 64 63 56 44 44 43 35 30 22 14 8 4 0 1 358 354 353 349 350 351 348 348 349 346 342 339 336 333 331 328 328 325 324 323 322 322 319 317 317 317 316 314 312 311 311 307 302 301 305 313 319 315 313 312 310 311 310 308 306 299 292 285 281
105 99 95 89 80 76 84 95 103 102 97 93 88 81 79 81 83 90 93 93 92 87 82 78 71 60 58 50 37 37 35 26 21 14 5 0 1 1 359 359 357 353 351 353 352 351 351 350 347 344 341 336 334 333 331 329 327 327 325 322 322 320 318 319 320 318 316 315 313 313 307 301 304 311 317 319 317 317 314 313 314 311 309 306 301 292 284 279
97 92 87 82 80 87 98 105 105 101 100 99 90 84 85 89 92 97 99 97 90 80 71 67 59 49 51 42 28 30 25 18 16 7 359 360 6 8 4 2 359 357 357 355 354 355 352 349 347 345 341 336 336 334 331 330 329 329 326 324 324 322 322 323 322 320 319 317 316 318 308 303 308 316 320 320 318 316 313 314 314 311 310 308 303 295 285 278
95 88 83 82 89 100 108 109 107 103 99 95 95 96 93 95 98 99 97 90 80 71 63 58 52 46 45 35 25 23 16 18 17 7 3 4 8 11 10 6 3 2 0 356 356 356 351 349 347 345 343 339 337 334 333 333 331 331 328 326 326 323 322 323 323 323 324 319 318 319 308 304 311 318 320 319 316 315 315 314 311 309 308 307 304 296 287 279
93 85 83 88 98 108 109 108 107 101 93 92 102 102 98 98 95 91 88 81 72 64 58 54 48 42 37 27 23 20 21 21 14 9 7 6 8 10 9 7 5 3 360 357 355 353 350 350 348 347 345 340 337 334 333 334 331 333 331 327 326 323 321 323 326 326 325 320 319 319 309 307 314 320 322 321 318 318 316 313 310 309 308 306 303 296 287 280
90 86 87 94 105 111 108 106 104 100 94 96 103 102 98 93 87 84 77 72 68 58 49 45 42 40 32 26 26 23 21 16 12 15 14 10 10 8 6 6 5 2 359 356 352 351 351 350 348 349 345 339 336 332 331 334 333 337 335 328 327 325 322 324 327 328 326 322 320 320 311 309 316 323 325 324 322 320 314 311 310 310 310 307 303 297 287 279
96 94 95 104 113 112 110 108 105 102 101 102 101 97 93 87 81 75 67 65 61 50 43 37 37 38 33 33 36 31 25 20 19 22 19 14 11 8 6 4 2 360 358 355 352 352 351 350 350 348 342 336 335 334 337 342 340 339 336 329 327 326 323 324 328 330 327 321 319 319 313 313 319 326 328 327 322 317 314 315 318 320 321 316 308 299 289 281
112 108 110 117 115 112 115 116 114 111 108 106 100 95 90 83 76 67 62 59 49 45 46 41 45 48 40 38 39 35 33 29 25 25 21 16 11 9 6 2 360 0 359 354 352 354 353 353 349 343 340 339 341 346 350 348 339 336 333 329 328 325 324 325 327 328 325 321 320 321 319 318 324 330 331 327 322 320 324 328 332 334 332 325 315 304 292 281
118 116 118 115 105 107 116 120 121 117 113 109 101 96 89 79 68 60 60 56 48 54 56 49 49 52 48 41 36 31 30 30 27 23 17 11 9 7 6 3 2 2 359 355 357 360 358 354 349 346 350 352 353 354 353 346 337 335 332 328 326 324 323 325 326 327 327 324 323 324 322 322 328 333 334 334 335 338 339 337 335 333 328 322 317 309 294 280
121 122 118 110 105 107 115 122 124 122 120 115 104 91 79 69 59 53 56 57 53 57 58 52 47 48 45 40 36 28 24 26 24 19 13 9 8 7 7 6 5 3 3 6 7 5 0 354 353 355 357 357 356 354 348 344 339 337 334 329 327 324 323 326 328 329 330 326 323 326 324 324 330 335 338 351 354 343 339 336 333 329 324 320 318 310 297 282
127 125 121 120 118 116 121 128 129 127 124 117 102 84 73 69 65 60 57 58 57 55 54 49 45 43 39 38 37 28 23 20 12 8 9 10 9 10 12 10 10 9 9 11 8 3 0 357 357 359 359 359 358 353 347 344 342 338 337 332 329 328 325 326 329 331 332 326 323 326 324 326 334 339 349 358 344 338 338 334 330 327 324 322 320 313 299 283
128 127 130 131 130 128 130 130 126 122 114 106 96 87 84 77 69 64 56 53 53 51 48 45 41 38 34 33 36 35 29 20 6 5 11 15 14 14 16 15 12 12 11 7 3 3 2 359 0 1 1 2 357 351 348 345 343 340 339 333 330 331 329 327 330 333 331 324 323 327 326 328 335 342 348 342 337 339 336 332 331 330 328 325 322 313 295 276
129 133 135 134 133 130 127 120 115 111 103 99 94 94 95 78 61 57 52 49 51 50 47 44 41 37 33 30 35 40 32 27 22 17 18 19 17 15 16 15 13 12 8 3 4 7 3 0 3 5 3 1 355 353 350 343 342 343 340 334 331 333 332 327 329 332 329 323 323 327 327 328 333 337 336 337 338 338 334 334 336 332 330 324 316 304 280 263
135 139 137 135 131 124 117 110 105 103 99 94 87 87 81 37 33 45 46 46 47 47 44 41 40 37 32 30 34 35 27 25 22 19 19 17 15 14 14 14 12 10 7 5 8 8 5 4 6 7 2 359 358 354 348 342 341 344 342 336 332 332 330 325 327 329 326 324 326 330 329 325 326 332 335 340 340 338 337 337 337 335 332 323 309 290 263 248
144 144 141 136 128 118 106 96 93 88 80 73 61 26 2 352 352 27 37 40 40 39 37 36 36 33 29 29 31 29 25 22 19 19 17 14 14 13 14 14 11 9 8 8 10 7 6 6 7 6 0 360 359 351 348 344 340 343 344 338 334 331 328 327 328 327 323 323 328 332 331 318 322 332 338 341 339 337 337 337 338 338 332 323 305 278 252 238
152 151 146 135 125 113 90 74 65 49 40 44 38 20 14 5 9 29 40 38 32 31 32 31 32 29 24 29 32 30 24 18 19 19 14 13 13 11 12 12 11 11 9 9 10 7 6 8 7 3 358 357 355 349 350 346 339 341 343 338 334 330 328 328 329 325 317 314 322 329 322 291 319 335 340 337 336 334 336 338 338 336 330 319 295 262 242 234
157 154 144 130 118 98 65 45 37 27 26 33 18 7 1 4 23 29 138 62 15 19 25 26 28 24 21 29 31 30 28 18 17 17 16 16 13 9 9 9 11 14 11 9 9 7 6 8 3 357 355 352 352 352 352 347 341 340 341 337 333 330 329 329 330 326 314 314 324 341 342 296 309 334 335 330 332 332 334 336 335 332 326 310 280 251 240 240
156 148 136 122 102 69 37 20 11 6 14 15 10 16 6 9 35 32 103 89 11 11 20 21 25 22 20 27 28 28 29 20 16 16 17 18 13 9 8 7 9 13 15 11 8 7 5 1 356 354 354 354 356 356 351 349 344 342 342 336 331 331 331 334 335 331 325 324 332 2 356 326 302 323 327 324 327 331 334 334 331 325 315 294 267 249 251 268
151 144 133 113 73 38 19 4 354 347 353 340 11 29 20 24 83 72 96 88 21 17 20 21 23 21 20 24 25 26 25 20 19 19 17 16 11 9 10 9 6 8 15 13 7 7 5 360 356 355 356 356 357 355 352 352 349 345 341 331 331 334 337 340 343 339 334 329 340 353 351 338 307 316 320 321 327 332 332 328 322 314 297 278 264 266 292 311
154 149 132 75 28 13 3 353 348 339 342 351 35 32 25 40 148 118 95 81 25 29 25 25 26 26 23 22 25 26 23 20 20 21 20 17 13 9 9 9 4 5 12 12 11 12 11 7 359 358 360 357 355 354 353 355 351 347 340 333 334 339 342 343 343 341 336 321 341 342 339 335 312 312 317 323 329 329 326 321 314 301 279 272 292 313 321 322
165 168 98 12 1 352 345 346 360 13 30 32 46 41 35 56 126 120 103 107 55 36 27 27 28 30 30 26 28 26 21 18 16 18 17 14 9 4 6 9 7 8 8 9 15 19 17 10 2 2 2 357 354 352 353 356 354 348 342 343 344 344 345 342 337 346 342 278 330 335 330 326 301 299 317 324 327 324 320 317 307 294 289 311 325 325 324 324
186 211 333 346 342 338 343 4 24 37 49 47 56 72 65 75 69 82 114 140 47 29 27 28 26 30 31 28 28 23 19 17 14 14 13 9 6 6 12 14 11 11 6 3 8 13 14 8 5 6 1 358 354 349 351 355 354 349 349 354 358 351 346 341 331 344 294 286 318 326 325 315 283 305 320 323 322 319 318 313 302 303 318 326 326 326 326 326
218 292 326 325 327 341 9 24 33 35 36 40 65 89 113 117 80 85 112 122 82 65 42 31 28 31 30 27 26 23 20 17 15 16 13 9 9 12 16 15 13 14 6 0 1 5 11 9 4 5 1 358 355 350 351 352 352 355 360 5 12 359 338 322 319 327 301 304 315 322 322 295 297 319 320 320 319 318 319 314 310 321 326 326 328 328 327 325
256 310 310 307 320 4 22 28 34 29 29 53 107 118 123 123 110 103 101 91 107 107 46 32 30 30 28 25 24 22 21 18 16 16 13 10 10 12 12 11 12 13 9 6 3 2 5 3 358 2 3 356 353 354 353 350 352 359 4 7 0 350 326 273 299 302 302 306 312 322 328 304 321 322 319 321 321 322 324 324 327 329 328 328 328 327 326 326
295 299 295 310 350 22 28 34 43 37 44 91 134 137 134 124 122 118 98 87 104 118 49 36 33 29 25 23 22 21 21 20 16 14 13 11 11 10 9 8 9 10 11 10 5 360 354 350 356 0 0 354 352 355 353 352 356 354 357 360 352 345 319 291 295 298 301 302 309 319 319 324 324 319 319 321 321 326 330 332 331 329 327 327 327 327 328 328
299 287 323 10 28 40 44 46 56 66 76 105 136 146 145 135 133 126 101 91 83 72 72 41 32 31 27 23 22 21 21 20 17 15 14 12 12 10 6 5 7 9 12 9 6 0 347 346 1 3 357 355 353 356 355 355 357 352 353 355 349 340 327 316 310 312 315 307 304 311 316 325 324 317 321 321 320 328 333 331 329 327 328 329 330 330 329 327
38 35 37 40 42 54 60 61 69 94 110 118 134 138 138 135 134 127 105 90 76 65 63 50 37 33 30 27 24 22 22 21 18 17 17 14 11 7 4 4 5 7 10 9 6 360 344 343 358 3 356 354 353 354 355 353 355 355 353 351 347 342 346 344 323 315 323 307 302 316 322 325 325 323 324 322 326 333 332 329 329 331 332 332 330 330 329 329
61 55 61 57 56 71 80 80 76 85 111 132 145 139 137 135 131 127 110 90 79 64 55 52 42 33 30 27 22 20 22 23 20 19 19 14 8 4 3 2 2 2 6 7 4 359 349 342 349 358 355 353 352 353 354 352 352 354 353 351 352 347 332 339 329 301 323 320 302 315 321 323 324 324 324 328 335 335 331 330 332 333 333 331 330 331 331 331
71 76 77 63 71 94 99 97 86 87 112 132 152 146 138 138 132 125 113 94 80 61 51 49 41 34 29 24 20 17 18 22 21 20 19 14 9 5 2 1 0 359 1 3 2 359 353 339 333 348 352 351 352 352 355 351 344 349 353 353 355 351 321 328 320 276 315 324 299 313 318 327 330 325 326 334 336 333 331 332 333 332 332 332 332 332 331 330
82 85 90 79 85 97 94 94 95 118 149 156 165 153 138 137 133 123 112 94 76 60 50 45 40 36 28 24 20 15 16 20 18 18 18 14 11 5 2 1 360 358 357 359 360 357 354 339 322 341 352 357 355 352 351 342 338 347 353 353 351 346 339 334 318 290 310 301 303 315 308 317 324 324 328 333 333 330 330 331 331 331 332 332 332 331 331 331
88 90 97 90 86 88 86 90 97 117 150 158 155 146 137 134 128 120 109 87 73 58 47 43 39 34 27 23 20 15 17 20 15 16 15 12 11 5 1 0 360 359 356 356 357 355 352 342 326 338 350 356 352 351 344 327 339 347 349 350 346 341 344 346 327 318 320 305 304 296 282 310 319 325 330 331 330 327 327 329 331 333 333 332 332 332 332 334
90 92 97 95 90 90 90 92 99 117 142 153 151 144 137 133 123 113 101 81 69 53 44 40 34 30 25 21 19 16 17 18 14 12 9 9 10 4 1 1 0 0 357 355 356 351 350 346 336 338 347 353 352 357 348 334 340 343 343 344 339 335 340 342 306 311 315 311 308 294 284 305 318 329 331 329 326 325 328 331 332 333 333 332 333 334 335 336
90 91 96 94 89 91 100 98 94 119 145 150 147 141 134 129 117 101 91 78 63 48 41 35 28 26 22 18 19 17 16 15 10 7 6 7 5 3 2 360 359 360 357 355 354 351 351 350 342 341 347 351 350 350 345 339 339 339 338 337 332 329 332 325 303 307 306 307 316 308 287 305 320 328 329 326 325 327 332 334 333 334 334 334 335 337 337 336
89 88 92 92 87 83 103 104 95 108 148 148 142 137 128 120 109 94 84 72 56 44 36 30 26 22 17 17 17 17 16 14 8 4 4 4 2 1 359 357 357 358 355 354 353 352 354 351 346 347 351 350 347 345 339 335 335 333 330 329 325 324 326 323 324 322 302 306 323 314 287 307 320 328 328 327 329 331 334 334 334 335 335 336 338 339 337 334
84 85 85 90 96 92 94 102 105 111 126 138 135 131 124 114 104 90 74 59 46 37 32 27 23 18 16 14 14 16 16 13 10 6 2 2 1 360 357 356 356 354 352 351 350 351 352 351 352 355 352 333 325 322 323 324 324 326 326 324 322 324 325 325 330 329 315 313 312 290 289 309 322 330 330 331 333 333 334 335 337 337 337 338 340 339 336 334
78 82 75 73 94 93 85 81 101 109 106 109 113 112 116 110 96 82 63 46 34 28 27 24 19 17 15 11 12 15 14 12 11 6 2 1 359 357 356 353 353 352 349 348 348 350 350 349 350 346 333 320 314 314 319 319 316 320 324 320 321 326 321 321 330 330 326 318 309 310 313 315 323 332 331 332 334 333 335 337 338 339 339 339 340 339 338 336
67 67 47 347 300 21 91 70 81 94 89 83 81 77 93 98 86 71 50 35 24 19 20 18 14 13 11 10 11 14 13 11 8 4 2 360 356 356 355 352 352 350 347 347 347 348 348 346 345 340 335 334 329 323 327 324 317 319 321 317 320 321 314 321 329 332 336 327 316 326 329 321 324 331 331 332 333 333 336 338 339 340 340 340 341 341 340 340
45 30 16 343 296 307 215 32 44 61 62 62 59 51 60 75 74 61 38 21 12 10 12 11 9 8 7 8 9 11 11 8 6 3 360 358 356 356 353 351 350 348 347 346 345 346 347 345 342 338 338 341 337 330 334 333 324 321 318 317 319 316 317 325 328 334 339 330 316 324 327 322 325 331 331 332 333 334 336 339 340 341 341 341 341 342 342 343
42 33 20 360 324 312 289 307 19 29 32 36 40 39 36 44 55 39 22 10 2 3 3 2 4 4 4 5 7 8 7 4 2 360 357 357 356 354 353 351 348 346 347 345 344 346 346 344 341 337 339 345 344 340 343 337 326 319 316 321 322 318 322 326 329 337 337 326 321 323 322 323 329 331 330 332 334 335 338 341 343 342 341 341 342 342 344 345
40 34 14 346 333 328 305 310 340 4 14 17 22 24 17 15 20 3 360 358 356 356 353 355 359 360 1 3 4 5 4 0 359 356 356 357 354 353 354 353 348 346 347 345 344 346 344 342 341 336 337 348 350 345 345 337 324 315 316 327 327 324 328 331 334 337 335 329 329 326 322 327 333 331 330 334 336 338 341 343 344 342 341 342 342 343 345 345
34 30 18 355 345 335 317 319 325 340 360 7 8 11 4 355 349 343 345 344 346 348 346 349 355 356 358 0 1 1 359 357 356 354 356 355 353 354 354 352 350 347 347 346 344 345 343 340 342 338 335 343 347 346 346 338 317 307 326 333 332 330 332 333 333 336 335 331 330 328 327 331 331 331 333 337 338 339 342 344 344 343 343 343 343 344 345 345
26 21 16 5 356 343 329 329 325 328 341 351 358 1 353 343 334 332 338 337 338 341 340 345 351 354 356 357 357 358 355 355 354 353 354 354 354 356 353 350 352 347 347 348 345 345 344 341 343 341 333 336 344 345 345 337 301 330 341 336 333 332 332 332 333 337 337 333 331 330 330 330 330 333 336 337 338 340 343 345 344 343 344 344 344 345 345 345
Height
3151 3152 3153 3155 3155 3155 3154 3154 3153 3153 3153 3153 3152 3152 3151 3150 3150 3150 3150 3149 3149 3149 3149 3149 3149 3149 3149 3149 3149 3148 3148 3148 3148 3148 3147 3147 3147 3146 3146 3146 3145 3145 3144 3144 3143 3143 3142 3142 3141 3141 3140 3140 3139 3139 3139 3139 3138 3138 3137 3136 3135 3134 3133 3133 3131 3130 3129 3128 3128 3127 3126 3126 3125 3124 3123 3122 3121 3120 3119 3118 3116 3114 3112 3111 3109 3107 3106 3104
3152 3153 3154 3154 3155 3155 3154 3154 3154 3154 3153 3153 3152 3151 3151 3150 3150 3150 3150 3149 3149 3149 3149 3149 3149 3149 3149 3149 3149 3149 3148 3148 3148 3148 3148 3147 3147 3147 3147 3146 3146 3146 3145 3145 3144 3144 3143 3142 3141 3141 3140 3140 3139 3139 3138 3138 3138 3137 3136 3135 3134 3133 3132 3131 3130 3129 3128 3127 3126 3126 3125 3124 3123 3122 3121 3119 3119 3118 3117 3116 3114 3111 3110 3108 3106 3105 3103 3102
3153 3153 3154 3154 3154 3154 3154 3154 3154 3154 3153 3152 3152 3151 3151 3150 3150 3150 3150 3150 3149 3149 3149 3150 3150 3150 3149 3149 3149 3149 3149 3149 3149 3148 3148 3148 3148 3148 3147 3147 3147 3146 3146 3145 3145 3144 3144 3143 3142 3141 3141 3140 3139 3139 3138 3138 3137 3136 3135 3134 3133 3132 3131 3130 3129 3128 3127 3126 3125 3124 3123 3122 3122 3120 3118 3117 3117 3116 3115 3114 3111 3109 3108 3106 3104 3102 3101 3099
3153 3153 3154 3154 3154 3154 3154 3154 3154 3153 3153 3152 3151 3151 3151 3150 3150 3150 3150 3150 3150 3150 3150 3150 3150 3150 3150 3150 3150 3149 3149 3149 3149 3149 3149 3149 3149 3148 3148 3148 3147 3147 3146 3146 3145 3145 3144 3143 3142 3142 3141 3140 3140 3139 3138 3137 3136 3135 3134 3133 3132 3131 3130 3129 3128 3127 3126 3124 3123 3123 3122 3121 3120 3118 3117 3116 3114 3114 3114 3112 3109 3107 3106 3103 3102 3100 3099 3097
3153 3154 3154 3154 3154 3154 3154 3154 3154 3153 3153 3152 3151 3151 3151 3151 3151 3151 3151 3151 3151 3151 3151 3151 3151 3151 3151 3150 3150 3150 3149 3149 3150 3150 3150 3150 3149 3149 3148 3148 3147 3147 3146 3146 3145 3145 3144 3143 3142 3142 3141 3140 3139 3138 3137 3137 3136 3134 3134 3133 3132 3130 3129 3129 3128 3126 3125 3123 3122 3121 3120 3119 3118 3116 3115 3114 3112 3112 3111 3109 3106 3105 3103 3101 3100 3098 3096 3095
3153 3154 3154 3155 3154 3154 3154 3154 3154 3153 3153 3152 3152 3151 3151 3151 3151 3151 3151 3151 3152 3152 3152 3152 3152 3152 3151 3151 3151 3150 3150 3150 3151 3151 3151 3150 3150 3149 3149 3148 3148 3147 3147 3146 3145 3145 3144 3143 3142 3142 3141 3140 3139 3138 3137 3136 3135 3134 3133 3132 3131 3130 3129 3128 3127 3125 3124 3122 3121 3120 3119 3118 3116 3113 3112 3111 3111 3110 3107 3105 3104 3103 3101 3099 3098 3096 3094 3093
3153 3154 3154 3154 3154 3154 3154 3154 3154 3153 3153 3152 3152 3152 3152 3152 3152 3152 3152 3152 3152 3152 3152 3152 3152 3152 3152 3152 3151 3151 3151 3151 3152 3152 3151 3151 3150 3150 3149 3149 3148 3147 3147 3146 3145 3145 3144 3143 3142 3141 3140 3139 3138 3137 3136 3135 3134 3133 3132 3131 3130 3129 3128 3127 3125 3124 3123 3121 3120 3118 3117 3116 3113 3111 3109 3109 3110 3107 3104 3103 3102 3100 3098 3097 3095 3093 3092 3090
3153 3154 3154 3154 3154 3155 3154 3154 3154 3154 3153 3153 3153 3153 3153 3153 3153 3153 3153 3153 3153 3153 3153 3153 3153 3152 3152 3152 3152 3152 3152 3152 3152 3152 3152 3151 3151 3150 3150 3149 3148 3147 3147 3146 3145 3144 3143 3142 3141 3140 3139 3138 3137 3136 3135 3134 3133 3132 3131 3130 3129 3127 3126 3125 3124 3123 3121 3119 3118 3116 3115 3113 3110 3108 3105 3106 3108 3105 3102 3100 3099 3097 3096 3094 3092 3090 3089 3087
3153 3154 3154 3155 3155 3155 3155 3154 3154 3154 3154 3153 3153 3153 3153 3154 3154 3154 3154 3154 3154 3154 3153 3153 3153 3153 3153 3153 3153 3153 3153 3153 3153 3153 3152 3152 3151 3150 3150 3149 3148 3148 3147 3146 3145 3144 3143 3142 3141 3139 3138 3137 3136 3135 3135 3133 3132 3131 3130 3129 3127 3125 3124 3123 3122 3121 3119 3117 3115 3113 3112 3109 3107 3105 3102 3104 3104 3101 3100 3098 3096 3095 3093 3091 3089 3087 3085 3083
3154 3154 3155 3155 3155 3155 3155 3154 3154 3154 3154 3154 3154 3154 3154 3155 3155 3155 3155 3155 3154 3154 3154 3154 3153 3154 3154 3154 3153 3154 3154 3153 3153 3153 3153 3152 3151 3151 3150 3149 3148 3147 3146 3145 3144 3143 3142 3141 3140 3139 3138 3137 3136 3135 3134 3133 3131 3130 3129 3127 3126 3124 3122 3122 3121 3119 3117 3115 3113 3110 3108 3105 3104 3102 3100 3101 3100 3098 3097 3095 3093 3092 3089 3087 3085 3083 3081 3079
3154 3154 3155 3155 3155 3155 3155 3154 3154 3154 3154 3155 3155 3155 3155 3155 3155 3155 3155 3155 3155 3155 3154 3154 3154 3154 3154 3154 3154 3154 3154 3154 3154 3153 3153 3152 3152 3151 3150 3149 3148 3147 3146 3145 3143 3142 3141 3140 3139 3138 3137 3136 3135 3134 3133 3132 3130 3129 3127 3126 3125 3123 3121 3120 3119 3118 3116 3113 3111 3108 3104 3101 3101 3101 3099 3098 3096 3094 3093 3091 3089 3087 3085 3083 3081 3079 3077 3075
3154 3154 3155 3155 3155 3155 3155 3155 3155 3155 3155 3155 3156 3156 3156 3156 3156 3156 3156 3156 3156 3155 3155 3155 3155 3155 3155 3154 3155 3155 3155 3154 3154 3153 3153 3152 3152 3151 3150 3148 3148 3147 3146 3144 3143 3142 3141 3140 3139 3138 3137 3136 3135 3133 3132 3131 3129 3128 3126 3124 3123 3122 3120 3119 3118 3117 3114 3112 3109 3106 3099 3094 3098 3099 3097 3095 3092 3091 3088 3086 3085 3082 3080 3078 3076 3075 3073 3070
3154 3155 3155 3155 3155 3155 3155 3156 3156 3156 3156 3156 3156 3156 3157 3157 3157 3157 3157 3156 3156 3156 3156 3156 3156 3155 3155 3155 3156 3155 3155 3155 3154 3154 3153 3152 3151 3150 3150 3148 3147 3146 3145 3144 3143 3142 3141 3140 3139 3138 3137 3135 3134 3133 3131 3130 3128 3127 3125 3122 3120 3119 3118 3117 3116 3115 3113 3110 3107 3105 3096 3089 3094 3096 3094 3092 3089 3087 3084 3082 3080 3077 3075 3073 3071 3070 3068 3065
3155 3155 3155 3156 3156 3156 3156 3156 3157 3157 3157 3157 3157 3157 3158 3158 3158 3157 3157 3157 3157 3157 3156 3156 3156 3156 3156 3156 3156 3155 3155 3155 3154 3153 3152 3152 3151 3150 3150 3148 3147 3146 3145 3144 3142 3142 3140 3139 3138 3137 3136 3134 3133 3132 3130 3129 3127 3126 3123 3121 3119 3116 3115 3115 3114 3112 3111 3107 3105 3104 3095 3085 3090 3093 3092 3090 3086 3083 3080 3078 3075 3072 3071 3068 3067 3065 3063 3061
3155 3155 3156 3156 3156 3157 3157 3157 3158 3158 3158 3158 3158 3158 3158 3158 3158 3158 3158 3158 3157 3157 3157 3157 3157 3156 3156 3156 3156 3156 3155 3154 3154 3153 3152 3151 3151 3150 3149 3148 3147 3146 3144 3143 3142 3141 3140 3139 3138 3136 3135 3133 3132 3130 3129 3128 3126 3125 3122 3120 3118 3115 3112 3111 3112 3109 3107 3105 3102 3102 3093 3083 3085 3089 3089 3086 3082 3079 3076 3074 3071 3068 3067 3065 3063 3062 3060 3058
3156 3156 3156 3157 3157 3157 3158 3158 3158 3158 3158 3159 3159 3159 3159 3159 3159 3158 3158 3158 3158 3158 3158 3157 3157 3157 3157 3157 3156 3155 3155 3154 3154 3154 3153 3152 3151 3150 3149 3148 3147 3145 3144 3143 3142 3141 3139 3138 3136 3135 3134 3132 3130 3128 3127 3126 3125 3124 3122 3118 3116 3113 3109 3106 3107 3106 3103 3100 3099 3099 3091 3081 3082 3086 3085 3082 3078 3075 3072 3069 3068 3065 3063 3062 3060 3058 3057 3055
3156 3157 3157 3157 3158 3158 3159 3159 3159 3159 3159 3160 3160 3160 3159 3159 3159 3159 3159 3159 3159 3159 3158 3158 3158 3158 3157 3157 3156 3156 3155 3155 3154 3154 3153 3152 3151 3150 3148 3147 3146 3145 3144 3143 3141 3140 3138 3137 3136 3134 3133 3131 3130 3127 3125 3124 3122 3121 3119 3117 3114 3112 3108 3104 3102 3101 3099 3096 3095 3095 3089 3079 3079 3082 3080 3077 3073 3070 3068 3066 3065 3063 3061 3059 3058 3056 3054 3052
3157 3157 3158 3158 3159 3159 3159 3159 3159 3160 3160 3160 3160 3160 3160 3160 3160 3160 3160 3160 3159 3159 3159 3159 3158 3158 3158 3157 3157 3156 3156 3156 3155 3154 3153 3152 3151 3149 3149 3148 3147 3145 3144 3142 3141 3140 3138 3137 3135 3134 3133 3130 3129 3126 3125 3124 3122 3120 3118 3115 3112 3109 3107 3104 3100 3097 3095 3091 3089 3089 3084 3076 3076 3078 3076 3073 3070 3067 3066 3065 3064 3062 3060 3058 3055 3054 3052 3050
3157 3158 3159 3159 3159 3159 3159 3160 3160 3160 3161 3161 3161 3161 3161 3160 3160 3160 3160 3160 3160 3160 3160 3160 3159 3158 3158 3157 3157 3156 3156 3156 3155 3153 3152 3151 3150 3149 3149 3147 3146 3145 3144 3142 3141 3139 3137 3136 3134 3132 3131 3129 3127 3126 3125 3125 3123 3120 3118 3114 3111 3107 3104 3103 3100 3096 3092 3086 3083 3084 3079 3073 3072 3073 3071 3069 3067 3066 3065 3065 3063 3062 3060 3057 3054 3052 3050 3048
3158 3159 3159 3160 3160 3160 3160 3161 3161 3161 3162 3162 3162 3162 3161 3161 3161 3161 3161 3162 3162 3161 3160 3160 3159 3158 3158 3158 3157 3157 3156 3155 3154 3153 3152 3151 3150 3149 3148 3147 3146 3145 3143 3141 3139 3138 3136 3135 3133 3131 3130 3129 3128 3126 3125 3124 3122 3120 3117 3113 3110 3106 3101 3100 3098 3094 3091 3084 3079 3079 3075 3070 3071 3069 3067 3067 3066 3066 3065 3064 3062 3061 3058 3056 3053 3051 3048 3046
3159 3159 3160 3160 3161 3161 3161 3162 3162 3162 3163 3162 3162 3162 3162 3162 3162 3162 3163 3163 3162 3161 3161 3160 3159 3159 3159 3158 3158 3157 3156 3154 3153 3153 3152 3151 3150 3149 3148 3147 3146 3144 3142 3140 3139 3137 3136 3135 3133 3131 3130 3129 3128 3127 3125 3123 3121 3119 3116 3112 3109 3105 3099 3096 3096 3093 3090 3083 3077 3077 3072 3068 3069 3067 3066 3066 3066 3065 3064 3062 3061 3058 3056 3054 3052 3049 3047 3045
3159 3160 3161 3161 3162 3162 3163 3163 3163 3163 3163 3163 3163 3163 3163 3163 3164 3163 3163 3163 3162 3162 3161 3161 3160 3160 3159 3158 3158 3157 3156 3155 3155 3154 3153 3152 3151 3149 3148 3147 3145 3143 3141 3140 3139 3137 3136 3134 3133 3132 3130 3129 3128 3126 3124 3122 3121 3118 3116 3112 3108 3105 3098 3091 3091 3091 3088 3081 3075 3074 3069 3065 3066 3065 3065 3065 3064 3063 3062 3060 3058 3056 3055 3053 3051 3048 3045 3043
3160 3161 3162 3162 3163 3163 3163 3164 3164 3164 3164 3164 3164 3164 3164 3164 3164 3164 3164 3164 3163 3162 3162 3162 3161 3160 3160 3159 3158 3158 3157 3157 3156 3154 3153 3151 3150 3149 3148 3146 3144 3142 3141 3140 3138 3136 3135 3134 3133 3132 3130 3129 3127 3125 3124 3122 3120 3118 3115 3112 3108 3105 3100 3091 3086 3086 3085 3081 3075 3072 3068 3064 3065 3064 3064 3064 3062 3061 3060 3058 3056 3054 3053 3051 3048 3045 3042 3039
3161 3162 3162 3163 3163 3164 3164 3164 3164 3164 3164 3165 3165 3165 3165 3165 3165 3165 3165 3164 3164 3163 3163 3162 3162 3161 3160 3159 3158 3158 3157 3156 3155 3153 3152 3151 3150 3149 3148 3146 3144 3143 3141 3139 3137 3136 3135 3134 3133 3132 3130 3128 3127 3125 3123 3120 3118 3118 3115 3112 3107 3104 3102 3096 3089 3084 3081 3079 3075 3072 3067 3062 3063 3064 3063 3062 3061 3059 3057 3055 3053 3051 3049 3047 3044 3042 3039 3037
3162 3162 3163 3164 3164 3164 3165 3165 3165 3165 3165 3165 3165 3165 3165 3165 3165 3165 3165 3165 3164 3164 3163 3163 3162 3161 3161 3160 3158 3158 3156 3156 3154 3153 3152 3151 3150 3148 3147 3146 3144 3143 3141 3139 3138 3136 3135 3134 3133 3132 3130 3128 3127 3124 3122 3119 3115 3114 3113 3110 3107 3102 3099 3096 3091 3084 3078 3075 3074 3073 3070 3062 3060 3063 3062 3060 3058 3056 3054 3052 3050 3048 3046 3044 3042 3039 3037 3035
3162 3163 3164 3164 3165 3165 3165 3165 3165 3165 3165 3165 3165 3165 3165 3165 3165 3165 3165 3165 3165 3165 3164 3163 3162 3162 3161 3160 3159 3158 3157 3156 3155 3154 3153 3151 3149 3148 3147 3146 3145 3143 3141 3139 3138 3137 3135 3134 3133 3131 3130 3128 3127 3124 3121 3118 3114 3112 3110 3108 3105 3102 3098 3094 3091 3085 3078 3075 3074 3075 3074 3065 3060 3061 3060 3058 3057 3054 3052 3050 3048 3046 3044 3042 3040 3038 3036 3033
3163 3164 3164 3165 3165 3166 3166 3166 3165 3165 3165 3165 3165 3165 3165 3165 3165 3165 3165 3165 3165 3165 3165 3164 3163 3163 3162 3160 3159 3158 3157 3157 3156 3155 3153 3151 3150 3148 3147 3146 3145 3143 3141 3139 3138 3137 3135 3134 3133 3131 3130 3127 3125 3122 3120 3117 3114 3111 3109 3106 3103 3100 3096 3093 3089 3085 3080 3076 3074 3074 3073 3066 3060 3060 3060 3057 3056 3052 3050 3049 3046 3045 3043 3041 3039 3037 3035 3032
3163 3164 3165 3165 3166 3166 3166 3166 3165 3165 3165 3165 3165 3165 3165 3165 3165 3164 3164 3165 3167 3166 3166 3165 3163 3163 3161 3160 3159 3158 3158 3157 3156 3155 3153 3152 3151 3150 3148 3146 3144 3143 3142 3139 3137 3136 3135 3134 3133 3131 3129 3127 3124 3122 3119 3117 3113 3110 3107 3104 3102 3098 3094 3090 3086 3083 3078 3075 3073 3072 3072 3067 3060 3060 3060 3057 3055 3052 3049 3047 3045 3044 3042 3040 3038 3035 3033 3031
3164 3165 3165 3166 3166 3166 3166 3166 3165 3165 3165 3165 3165 3165 3165 3164 3165 3164 3164 3166 3168 3167 3166 3165 3164 3163 3161 3160 3160 3158 3158 3157 3156 3155 3153 3153 3152 3150 3148 3146 3144 3143 3142 3140 3138 3137 3136 3134 3133 3130 3128 3126 3124 3122 3119 3117 3113 3109 3106 3102 3100 3095 3090 3086 3083 3081 3076 3074 3074 3073 3073 3071 3061 3057 3059 3056 3054 3052 3048 3046 3044 3042 3040 3038 3036 3034 3032 3031
3165 3165 3166 3166 3166 3166 3166 3166 3165 3165 3165 3165 3165 3165 3165 3164 3164 3164 3164 3167 3168 3167 3167 3166 3165 3164 3162 3161 3160 3159 3158 3157 3156 3155 3154 3153 3152 3150 3149 3148 3147 3145 3144 3143 3141 3138 3136 3134 3132 3130 3128 3125 3123 3121 3118 3115 3112 3108 3104 3099 3094 3091 3087 3083 3082 3081 3077 3073 3074 3074 3074 3074 3064 3055 3055 3055 3053 3051 3047 3045 3043 3040 3038 3036 3035 3034 3031 3028
3165 3166 3166 3166 3166 3166 3166 3166 3165 3165 3165 3165 3165 3165 3165 3164 3164 3164 3166 3167 3168 3167 3167 3166 3165 3164 3163 3162 3160 3159 3158 3157 3156 3155 3154 3153 3152 3151 3150 3149 3147 3144 3142 3140 3138 3136 3134 3134 3132 3129 3126 3124 3121 3119 3117 3114 3111 3108 3104 3096 3089 3085 3082 3080 3079 3081 3080 3074 3073 3073 3071 3072 3065 3056 3054 3054 3052 3050 3047 3044 3041 3039 3037 3035 3034 3032 3028 3023
3166 3166 3166 3166 3166 3166 3166 3166 3165 3165 3165 3165 3165 3165 3165 3165 3164 3165 3166 3167 3167 3167 3167 3166 3165 3164 3163 3161 3160 3159 3158 3157 3155 3154 3153 3152 3151 3150 3148 3145 3142 3139 3137 3135 3134 3135 3134 3132 3131 3127 3125 3122 3118 3115 3113 3112 3110 3107 3103 3097 3094 3091 3087 3084 3080 3081 3081 3074 3072 3073 3070 3067 3063 3057 3055 3054 3051 3048 3045 3043 3040 3038 3037 3035 3032 3028 3022 3017
3166 3166 3166 3166 3166 3166 3166 3166 3165 3165 3165 3165 3165 3165 3164 3165 3165 3166 3166 3166 3166 3167 3167 3166 3165 3164 3162 3161 3160 3159 3158 3157 3155 3154 3153 3152 3150 3148 3147 3146 3144 3142 3140 3137 3134 3133 3132 3130 3129 3127 3125 3122 3119 3114 3111 3111 3109 3107 3104 3102 3103 3103 3101 3095 3087 3083 3079 3071 3068 3071 3069 3064 3061 3058 3056 3053 3050 3047 3044 3042 3040 3038 3036 3032 3027 3023 3018 3013
3166 3166 3166 3166 3166 3166 3166 3165 3165 3165 3165 3165 3165 3165 3165 3165 3166 3167 3167 3166 3166 3166 3166 3165 3164 3163 3162 3161 3160 3159 3158 3157 3155 3154 3153 3152 3150 3148 3147 3147 3146 3145 3143 3139 3136 3133 3132 3131 3129 3128 3126 3123 3121 3118 3115 3113 3111 3109 3108 3108 3107 3108 3108 3102 3092 3086 3080 3071 3066 3067 3066 3063 3059 3057 3054 3051 3049 3047 3044 3042 3040 3036 3032 3028 3023 3019 3014 3009
3166 3166 3166 3166 3166 3166 3165 3165 3165 3165 3165 3165 3165 3165 3165 3165 3166 3167 3167 3167 3166 3166 3166 3165 3164 3163 3162 3161 3160 3159 3158 3157 3156 3155 3153 3152 3150 3148 3147 3146 3145 3144 3141 3139 3138 3136 3134 3134 3131 3129 3127 3125 3121 3119 3117 3114 3112 3110 3108 3108 3107 3106 3105 3101 3094 3089 3083 3073 3066 3065 3064 3063 3060 3056 3053 3051 3048 3047 3044 3041 3037 3033 3029 3025 3020 3015 3009 3003
3166 3166 3166 3166 3166 3166 3166 3165 3165 3165 3165 3165 3165 3165 3165 3166 3166 3167 3167 3167 3166 3166 3165 3165 3164 3164 3163 3162 3160 3159 3158 3157 3156 3155 3153 3151 3150 3148 3147 3146 3145 3143 3142 3140 3139 3137 3134 3133 3132 3130 3127 3125 3121 3119 3117 3114 3113 3111 3108 3106 3106 3104 3103 3099 3091 3086 3083 3074 3066 3064 3063 3061 3059 3055 3052 3051 3048 3045 3042 3038 3033 3030 3025 3020 3015 3009 3004 2998
3166 3166 3166 3166 3166 3166 3166 3165 3165 3165 3165 3165 3165 3165 3165 3166 3166 3167 3167 3167 3166 3165 3165 3164 3164 3164 3163 3162 3160 3159 3158 3158 3157 3155 3153 3152 3150 3150 3148 3146 3145 3144 3143 3142 3140 3139 3136 3130 3129 3129 3127 3124 3121 3119 3117 3115 3114 3111 3108 3106 3104 3102 3101 3100 3094 3087 3085 3077 3064 3061 3063 3059 3056 3054 3050 3048 3045 3041 3038 3034 3029 3024 3019 3014 3009 3004 2998 2992
3166 3166 3166 3166 3166 3166 3166 3166 3165 3165 3165 3165 3165 3165 3166 3166 3167 3167 3167 3166 3166 3165 3165 3164 3164 3163 3162 3161 3160 3159 3158 3158 3157 3155 3154 3153 3151 3151 3149 3147 3145 3144 3143 3142 3140 3139 3136 3129 3126 3126 3126 3123 3121 3119 3117 3115 3113 3112 3110 3107 3104 3102 3100 3100 3098 3092 3088 3082 3066 3057 3060 3060 3056 3053 3049 3045 3041 3037 3033 3028 3023 3019 3015 3009 3003 2997 2992 2986
3166 3166 3166 3166 3166 3166 3166 3166 3166 3166 3166 3166 3166 3166 3166 3167 3167 3167 3167 3166 3166 3165 3165 3164 3163 3163 3162 3161 3160 3159 3158 3157 3157 3155 3154 3154 3152 3151 3150 3147 3146 3144 3142 3142 3140 3138 3136 3132 3126 3124 3125 3122 3119 3118 3116 3114 3112 3110 3108 3105 3103 3103 3101 3099 3098 3094 3090 3087 3075 3058 3053 3056 3056 3052 3048 3044 3039 3035 3029 3024 3020 3015 3010 3004 2997 2992 2986 2981
3166 3166 3166 3166 3166 3166 3166 3166 3166 3166 3166 3166 3166 3166 3166 3167 3167 3167 3167 3166 3166 3165 3164 3164 3163 3162 3162 3161 3160 3159 3158 3157 3157 3156 3155 3154 3153 3151 3150 3148 3146 3144 3141 3140 3139 3136 3135 3132 3126 3122 3122 3120 3118 3116 3114 3112 3110 3107 3105 3103 3101 3100 3099 3095 3093 3093 3091 3088 3082 3068 3054 3052 3055 3052 3047 3044 3038 3033 3028 3022 3017 3012 3005 2999 2994 2988 2981 2976
3166 3166 3166 3167 3167 3166 3166 3166 3166 3166 3166 3166 3166 3166 3167 3167 3167 3167 3167 3166 3165 3165 3164 3163 3163 3162 3161 3161 3160 3159 3158 3157 3156 3155 3154 3154 3153 3151 3150 3148 3146 3144 3141 3138 3137 3135 3133 3131 3126 3120 3118 3118 3117 3115 3113 3111 3109 3106 3103 3102 3100 3098 3096 3093 3090 3089 3090 3087 3084 3078 3061 3050 3053 3052 3047 3043 3037 3031 3027 3020 3014 3008 3001 2995 2989 2984 2978 2972
3167 3167 3167 3167 3167 3167 3167 3167 3167 3167 3166 3167 3167 3167 3167 3167 3167 3167 3166 3166 3165 3164 3164 3163 3162 3162 3161 3160 3160 3159 3158 3157 3156 3155 3154 3153 3153 3151 3150 3148 3146 3144 3142 3139 3136 3134 3131 3129 3125 3120 3118 3117 3115 3113 3112 3110 3107 3105 3103 3101 3100 3098 3097 3097 3093 3088 3087 3084 3081 3078 3064 3051 3052 3051 3045 3041 3035 3030 3025 3018 3010 3003 2997 2992 2985 2979 2973 2967
3168 3168 3168 3168 3168 3168 3167 3167 3167 3167 3167 3167 3167 3167 3168 3168 3167 3167 3166 3166 3165 3164 3164 3163 3162 3162 3161 3160 3160 3159 3158 3157 3156 3155 3154 3153 3152 3151 3149 3147 3146 3144 3143 3140 3138 3134 3130 3127 3123 3117 3114 3113 3112 3111 3111 3110 3107 3104 3102 3100 3099 3097 3096 3096 3094 3089 3086 3081 3078 3074 3061 3049 3049 3050 3045 3040 3033 3027 3021 3014 3007 3000 2993 2987 2980 2973 2967 2962
3168 3168 3169 3169 3168 3168 3168 3168 3168 3168 3168 3167 3168 3168 3168 3168 3167 3167 3166 3165 3165 3164 3163 3163 3162 3161 3161 3160 3159 3159 3158 3157 3156 3155 3153 3152 3151 3150 3148 3147 3145 3144 3143 3141 3139 3136 3133 3130 3125 3119 3114 3111 3109 3108 3107 3106 3105 3104 3102 3099 3097 3096 3094 3092 3091 3088 3085 3080 3079 3075 3058 3044 3045 3046 3042 3036 3028 3022 3016 3010 3003 2996 2989 2983 2976 2969 2964 2958
3169 3169 3169 3169 3169 3169 3169 3168 3168 3168 3168 3168 3168 3168 3168 3168 3168 3167 3166 3165 3165 3164 3163 3163 3162 3161 3161 3160 3159 3159 3158 3157 3156 3154 3153 3152 3150 3149 3147 3146 3145 3144 3143 3141 3139 3137 3134 3132 3129 3126 3125 3123 3118 3114 3110 3106 3103 3102 3101 3098 3096 3093 3092 3090 3088 3086 3082 3078 3077 3075 3059 3042 3040 3040 3035 3029 3023 3015 3010 3004 2998 2992 2986 2979 2972 2966 2961 2955
3170 3170 3170 3170 3170 3170 3169 3169 3168 3168 3168 3168 3168 3168 3168 3168 3167 3167 3166 3165 3165 3164 3163 3163 3162 3161 3161 3160 3159 3159 3157 3156 3155 3154 3152 3151 3149 3148 3147 3145 3144 3143 3141 3140 3138 3136 3133 3131 3129 3128 3128 3127 3122 3117 3113 3109 3103 3100 3098 3096 3093 3092 3089 3088 3086 3084 3079 3073 3069 3069 3061 3043 3034 3034 3029 3023 3017 3011 3005 2999 2993 2987 2981 2975 2969 2963 2958 2952
3170 3170 3170 3170 3170 3170 3169 3169 3169 3168 3168 3168 3168 3168 3168 3167 3167 3166 3166 3165 3164 3164 3163 3162 3162 3161 3160 3160 3159 3158 3157 3156 3155 3153 3152 3150 3149 3148 3146 3144 3143 3142 3140 3138 3136 3134 3132 3129 3128 3125 3123 3122 3118 3114 3111 3108 3103 3098 3096 3093 3091 3090 3088 3086 3084 3081 3078 3071 3059 3056 3056 3045 3034 3031 3026 3019 3014 3007 3001 2995 2989 2983 2978 2971 2965 2960 2954 2947
3171 3171 3171 3171 3170 3170 3170 3170 3169 3169 3169 3169 3168 3168 3168 3167 3167 3166 3166 3165 3164 3164 3163 3162 3162 3161 3160 3159 3158 3158 3156 3155 3154 3152 3151 3150 3148 3147 3145 3143 3142 3141 3139 3137 3135 3133 3130 3128 3125 3122 3119 3117 3115 3111 3108 3105 3100 3096 3094 3091 3089 3088 3086 3083 3081 3078 3076 3072 3060 3051 3050 3045 3036 3030 3025 3019 3012 3005 2999 2994 2988 2982 2975 2968 2962 2956 2949 2942
3171 3171 3171 3171 3170 3170 3170 3170 3170 3169 3169 3169 3168 3168 3167 3167 3166 3166 3165 3165 3164 3163 3163 3162 3161 3160 3160 3159 3158 3157 3156 3154 3153 3152 3151 3149 3148 3146 3144 3142 3141 3140 3138 3136 3133 3131 3128 3126 3123 3119 3115 3113 3111 3107 3103 3100 3096 3093 3092 3090 3087 3085 3083 3081 3078 3075 3071 3067 3061 3054 3048 3044 3038 3031 3024 3018 3013 3006 2999 2993 2987 2979 2972 2965 2958 2952 2945 2938
3171 3171 3171 3171 3170 3170 3170 3170 3170 3169 3169 3169 3168 3168 3167 3167 3166 3165 3165 3164 3163 3163 3162 3161 3161 3160 3159 3158 3157 3156 3155 3154 3153 3152 3150 3149 3147 3146 3144 3142 3140 3138 3136 3134 3132 3129 3126 3124 3121 3117 3111 3108 3106 3103 3100 3097 3093 3090 3089 3088 3086 3083 3081 3077 3074 3071 3065 3060 3056 3052 3046 3040 3036 3030 3023 3017 3011 3004 2997 2989 2981 2975 2968 2961 2955 2949 2941 2935
3172 3171 3171 3171 3170 3170 3170 3170 3169 3169 3169 3168 3168 3167 3167 3166 3166 3165 3164 3164 3163 3162 3162 3161 3160 3159 3158 3158 3157 3156 3155 3154 3152 3151 3150 3148 3147 3145 3143 3141 3140 3138 3135 3133 3131 3128 3125 3122 3119 3115 3108 3104 3102 3100 3097 3093 3090 3088 3087 3085 3084 3081 3078 3075 3072 3069 3063 3056 3050 3046 3040 3034 3030 3025 3020 3014 3007 3000 2993 2985 2977 2971 2965 2959 2952 2945 2938 2932
3172 3172 3171 3171 3170 3170 3170 3169 3169 3169 3168 3168 3168 3167 3166 3166 3165 3164 3164 3163 3162 3162 3161 3160 3160 3159 3158 3157 3156 3156 3154 3153 3152 3150 3149 3147 3145 3144 3142 3140 3139 3136 3134 3132 3130 3127 3124 3120 3117 3113 3107 3101 3099 3097 3094 3090 3087 3086 3085 3084 3081 3079 3076 3073 3069 3065 3061 3055 3048 3041 3036 3032 3027 3021 3014 3008 3002 2995 2989 2982 2975 2968 2962 2956 2949 2942 2936 2930